Location: Unspecified
(42.3650°N, 71.1030°W)
Time: 16:11:10
(UTC+00:00)

Tiros 1 - Pass Details

Date: 25 June 2024
Orbit: 624 x 656 km, 48.4° (Epoch: 13 July)

Event Time Altitude Azimuth Distance (km) Brightness Sun altitude
Rises 04:43:36 0° 256° (WSW) 2,896 - -24.3°
Reaches altitude 10° 04:45:57 10° 260° (W) 1,992 - -24.3°
Exits shadow 04:48:02 26° 269° (W) 1,231 8.5 -24.3°
Maximum altitude 04:50:28 59° 340° (NNW) 723 7.6 -24.3°
Drops below altitude 10° 04:55:01 10° 61° (ENE) 2,007 10.0 -24.2°
Sets 04:57:23 0° 65° (ENE) 2,921 10.9 -24.2°
